UAL1880 TNCM-KEWR

Flight info

Callsign UAL1880
Flight time 3h 51m
Altitude 36000
Route MODOR2 TRNKY DCT ODUCA L459 KEEKA/M080F360 L459 SAVIK/N0467F360 DCT YAALE/N0466F370 Y497 MOUGH/N0469F360 Y497 SUBBS DCT CYN DCT GXU DCT RBV V249 METRO
Aircraft B38M/M-SDE1FGHILORVWXY/HB1

Departure

Time 2026-05-03 21:52
Airport Princess Juliana International Airport (TNCM)

Arrival

Time 2026-05-04 01:44
Airport Newark Liberty International Airport (KEWR)
Time Latitude Longitude Altitude Speed Heading
2026-05-03 21:32 18.04340 -63.11296 31 ft 0 kts 349°
2026-05-03 21:43 18.04331 -63.11294 31 ft 4 kts 346°
2026-05-03 21:43 18.04309 -63.11288 31 ft 4 kts 349°
2026-05-03 21:44 18.04284 -63.11291 31 ft 4 kts 26°
2026-05-03 21:44 18.04260 -63.11303 31 ft 4 kts 25°
2026-05-03 21:44 18.04235 -63.11314 31 ft 4 kts 16°
2026-05-03 21:44 18.04218 -63.11318 31 ft 1 kts 11°
2026-05-03 21:45 18.04215 -63.11319 31 ft 0 kts 11°
2026-05-03 21:47 18.04221 -63.11319 31 ft 3 kts 355°
2026-05-03 21:47 18.04237 -63.11376 31 ft 13 kts 260°
2026-05-03 21:47 18.04215 -63.11481 31 ft 15 kts 244°
2026-05-03 21:48 18.04146 -63.11573 31 ft 17 kts 231°
2026-05-03 21:48 18.04077 -63.11666 30 ft 17 kts 237°
2026-05-03 21:48 18.04050 -63.11787 30 ft 15 kts 262°
2026-05-03 21:48 18.04041 -63.11850 30 ft 0 kts 261°
2026-05-03 21:50 18.04041 -63.11852 30 ft 2 kts 261°
2026-05-03 21:50 18.04031 -63.11893 30 ft 9 kts 249°
2026-05-03 21:50 18.03994 -63.11950 30 ft 10 kts 228°
2026-05-03 21:50 18.03943 -63.11953 30 ft 6 kts 116°
2026-05-03 21:51 18.03942 -63.11934 30 ft 0 kts 82°
2026-05-03 21:51 18.03943 -63.11928 30 ft 10 kts 82°
2026-05-03 21:51 18.03996 -63.11570 30 ft 89 kts 81°
2026-05-03 21:51 18.04127 -63.10679 32 ft 155 kts 81°
2026-05-03 21:52 18.04244 -63.09456 489 ft 175 kts 96°
2026-05-03 21:52 18.03679 -63.08292 1130 ft 192 kts 140°
2026-05-03 21:52 18.02367 -63.07715 1568 ft 221 kts 160°
2026-05-03 21:52 18.00836 -63.07237 2275 ft 235 kts 164°
2026-05-03 21:53 17.99242 -63.06870 3299 ft 238 kts 165°
2026-05-03 21:53 17.97559 -63.06493 3971 ft 256 kts 165°
2026-05-03 21:53 17.95782 -63.06103 4826 ft 262 kts 167°
2026-05-03 21:53 17.93938 -63.06168 5737 ft 273 kts 194°
2026-05-03 21:54 17.92246 -63.07133 6620 ft 284 kts 220°
2026-05-03 21:54 17.91395 -63.08195 7153 ft 290 kts 238°
2026-05-03 21:54 17.90744 -63.10197 8018 ft 295 kts 264°
2026-05-03 21:54 17.90952 -63.12347 8835 ft 298 kts 290°
2026-05-03 21:55 17.92008 -63.14196 9769 ft 299 kts 314°
2026-05-03 21:55 17.94374 -63.15719 10503 ft 314 kts 344°
2026-05-03 21:55 17.96569 -63.16225 10836 ft 333 kts 351°
2026-05-03 21:55 17.98941 -63.16403 11098 ft 352 kts 358°
2026-05-03 21:56 18.00624 -63.16465 11297 ft 363 kts 358°
2026-05-03 21:56 18.03188 -63.16588 11738 ft 373 kts 357°
2026-05-03 21:56 18.05775 -63.16731 12483 ft 373 kts 357°
2026-05-03 21:56 18.08355 -63.16883 13079 ft 377 kts 356°
2026-05-03 21:57 18.10983 -63.17042 13724 ft 380 kts 356°
2026-05-03 21:57 18.13631 -63.17204 14294 ft 382 kts 356°
2026-05-03 21:57 18.16290 -63.17368 14850 ft 384 kts 355°
2026-05-03 21:57 18.18970 -63.17534 15388 ft 386 kts 355°
2026-05-03 21:58 18.21659 -63.17701 15906 ft 389 kts 355°
2026-05-03 21:58 18.24375 -63.17869 16405 ft 392 kts 354°
2026-05-03 21:58 18.27102 -63.18040 16917 ft 394 kts 355°
2026-05-03 21:58 18.29854 -63.18211 17362 ft 398 kts 354°
2026-05-03 21:59 18.32626 -63.18384 17869 ft 400 kts 354°
2026-05-03 21:59 18.35415 -63.18558 18298 ft 403 kts 354°
2026-05-03 21:59 18.38226 -63.18733 18707 ft 405 kts 355°
2026-05-03 21:59 18.41024 -63.19064 19080 ft 406 kts 344°
2026-05-03 22:00 18.43634 -63.20157 19486 ft 404 kts 330°
2026-05-03 22:00 18.46123 -63.21566 19838 ft 407 kts 330°
2026-05-03 22:00 18.48611 -63.23022 20185 ft 410 kts 330°
2026-05-03 22:00 18.51100 -63.24503 20545 ft 412 kts 330°
2026-05-03 22:01 18.53593 -63.26004 20919 ft 413 kts 330°
2026-05-03 22:01 18.56093 -63.27519 21257 ft 416 kts 330°
2026-05-03 22:01 18.58585 -63.29034 21516 ft 421 kts 330°
2026-05-03 22:01 18.61120 -63.30578 21931 ft 421 kts 330°
2026-05-03 22:02 18.63664 -63.32126 22275 ft 423 kts 330°
2026-05-03 22:02 18.66226 -63.33687 22530 ft 428 kts 330°
2026-05-03 22:02 18.68809 -63.35261 22855 ft 429 kts 331°
2026-05-03 22:02 18.71399 -63.36839 23210 ft 431 kts 331°
2026-05-03 22:03 18.74004 -63.38427 23489 ft 434 kts 331°
2026-05-03 22:03 18.76631 -63.40030 23726 ft 437 kts 332°
2026-05-03 22:03 18.79274 -63.41642 23974 ft 440 kts 331°
2026-05-03 22:03 18.81928 -63.43263 24242 ft 441 kts 331°
2026-05-03 22:04 18.84616 -63.44838 24481 ft 443 kts 335°
2026-05-03 22:04 18.87424 -63.46207 24728 ft 445 kts 336°
2026-05-03 22:04 18.90229 -63.47598 25019 ft 446 kts 335°
2026-05-03 22:04 18.93041 -63.49012 25247 ft 449 kts 335°
2026-05-03 22:05 18.95865 -63.50444 25497 ft 451 kts 335°
2026-05-03 22:05 18.98692 -63.51880 25782 ft 452 kts 335°
2026-05-03 22:05 19.01535 -63.53325 26019 ft 454 kts 335°
2026-05-03 22:05 19.04390 -63.54777 26271 ft 456 kts 335°
2026-05-03 22:06 19.07248 -63.56230 26547 ft 457 kts 335°
2026-05-03 22:06 19.10124 -63.57694 26761 ft 460 kts 335°
2026-05-03 22:06 19.13012 -63.59164 27013 ft 462 kts 335°
2026-05-03 22:06 19.15907 -63.60638 27286 ft 463 kts 335°
2026-05-03 22:07 19.18780 -63.62103 27487 ft 465 kts 335°
2026-05-03 22:07 19.21702 -63.63592 27739 ft 467 kts 335°
2026-05-03 22:07 19.24631 -63.65084 28004 ft 468 kts 334°
2026-05-03 22:07 19.27571 -63.66585 28211 ft 471 kts 335°
2026-05-03 22:08 19.30528 -63.68093 28451 ft 472 kts 335°
2026-05-03 22:08 19.33489 -63.69605 28696 ft 474 kts 335°
2026-05-03 22:08 19.36466 -63.71126 28896 ft 476 kts 335°
2026-05-03 22:08 19.39459 -63.72654 29141 ft 477 kts 334°
2026-05-03 22:09 19.42454 -63.74186 29372 ft 479 kts 334°
2026-05-03 22:09 19.45473 -63.75729 29585 ft 481 kts 334°
2026-05-03 22:09 19.48483 -63.77269 29890 ft 481 kts 334°
2026-05-03 22:10 19.54504 -63.80351 30463 ft 480 kts 334°
2026-05-03 22:10 19.57507 -63.81889 30771 ft 478 kts 334°
2026-05-03 22:10 19.60501 -63.83423 31075 ft 477 kts 334°
2026-05-03 22:10 19.63490 -63.84955 31378 ft 476 kts 334°
2026-05-03 22:11 19.66466 -63.86481 31704 ft 474 kts 334°
2026-05-03 22:11 19.69432 -63.88002 32035 ft 472 kts 334°
2026-05-03 22:11 19.72387 -63.89519 32383 ft 470 kts 333°
2026-05-03 22:11 19.75321 -63.91026 32747 ft 468 kts 334°
2026-05-03 22:12 19.78247 -63.92529 33059 ft 467 kts 333°
2026-05-03 22:12 19.81167 -63.94029 33368 ft 466 kts 333°
2026-05-03 22:12 19.84078 -63.95526 33707 ft 464 kts 333°
2026-05-03 22:12 19.86953 -63.97004 33981 ft 464 kts 333°
2026-05-03 22:13 19.89855 -63.98498 34268 ft 463 kts 333°
2026-05-03 22:13 19.92747 -63.99986 34531 ft 462 kts 333°
2026-05-03 22:13 19.95637 -64.01474 34787 ft 461 kts 333°
2026-05-03 22:13 19.98518 -64.02958 35047 ft 459 kts 333°
2026-05-03 22:14 20.01389 -64.04438 35307 ft 458 kts 333°
2026-05-03 22:14 20.04253 -64.05915 35555 ft 457 kts 333°
2026-05-03 22:14 20.07109 -64.07387 35796 ft 456 kts 333°
2026-05-03 22:14 20.09962 -64.08859 36035 ft 455 kts 333°
2026-05-03 22:15 20.12812 -64.10330 36097 ft 455 kts 333°
2026-05-03 22:15 20.18476 -64.13256 36088 ft 451 kts 333°
2026-05-03 22:16 20.24125 -64.16176 36077 ft 452 kts 333°
2026-05-03 22:16 20.29781 -64.19102 36080 ft 452 kts 333°
2026-05-03 22:17 20.35437 -64.22030 36088 ft 452 kts 333°
2026-05-03 22:17 20.41092 -64.24961 36081 ft 452 kts 333°
2026-05-03 22:18 20.46746 -64.27893 36085 ft 452 kts 333°
2026-05-03 22:18 20.52403 -64.30829 36080 ft 452 kts 333°
2026-05-03 22:19 20.58061 -64.33768 36086 ft 452 kts 333°
2026-05-03 22:19 20.63717 -64.36709 36087 ft 452 kts 333°
2026-05-03 22:20 20.69339 -64.39634 36088 ft 452 kts 333°
2026-05-03 22:20 20.74993 -64.42578 36094 ft 452 kts 333°
2026-05-03 22:21 20.80654 -64.45529 36088 ft 452 kts 333°
2026-05-03 22:21 20.86314 -64.48481 36087 ft 452 kts 333°
2026-05-03 22:22 20.91976 -64.51437 36085 ft 453 kts 333°
2026-05-03 22:22 20.97631 -64.54392 36092 ft 453 kts 333°
2026-05-03 22:23 21.03292 -64.57352 36095 ft 453 kts 333°
2026-05-03 22:23 21.08949 -64.60313 36097 ft 453 kts 333°
2026-05-03 22:24 21.14601 -64.63274 36092 ft 452 kts 333°
2026-05-03 22:24 21.20252 -64.66237 36091 ft 452 kts 333°
2026-05-03 22:25 21.25902 -64.69202 36091 ft 452 kts 333°
2026-05-03 22:25 21.31560 -64.72173 36091 ft 452 kts 333°
2026-05-03 22:26 21.37171 -64.75123 36095 ft 452 kts 333°
2026-05-03 22:26 21.42818 -64.78093 36098 ft 452 kts 333°
2026-05-03 22:27 21.48454 -64.81061 36095 ft 451 kts 333°
2026-05-03 22:27 21.54089 -64.84031 36095 ft 451 kts 333°
2026-05-03 22:28 21.59724 -64.87003 36095 ft 451 kts 333°
2026-05-03 22:28 21.65361 -64.89979 36095 ft 451 kts 333°
2026-05-03 22:29 21.70994 -64.92956 36095 ft 451 kts 333°
2026-05-03 22:29 21.76627 -64.95935 36097 ft 450 kts 333°
2026-05-03 22:30 21.82248 -64.98910 36096 ft 450 kts 333°
2026-05-03 22:30 21.87869 -65.01888 36097 ft 450 kts 333°
2026-05-03 22:31 21.93489 -65.04868 36093 ft 450 kts 333°
2026-05-03 22:31 21.99110 -65.07851 36094 ft 450 kts 333°
2026-05-03 22:32 22.04728 -65.10836 36098 ft 450 kts 333°
2026-05-03 22:32 22.10413 -65.13660 36080 ft 450 kts 343°
2026-05-03 22:33 22.16472 -65.15386 36076 ft 451 kts 343°
2026-05-03 22:33 22.22541 -65.17122 36095 ft 451 kts 343°
2026-05-03 22:34 22.28577 -65.18837 36097 ft 451 kts 343°
2026-05-03 22:34 22.34652 -65.20564 36097 ft 451 kts 343°
2026-05-03 22:35 22.40728 -65.22294 36100 ft 451 kts 343°
2026-05-03 22:35 22.46790 -65.24020 36094 ft 451 kts 343°
2026-05-03 22:36 22.52857 -65.25750 36098 ft 451 kts 343°
2026-05-03 22:36 22.58919 -65.27479 36098 ft 451 kts 343°
2026-05-03 22:37 22.64986 -65.29212 36101 ft 451 kts 343°
2026-05-03 22:37 22.71053 -65.30946 36100 ft 451 kts 343°
2026-05-03 22:38 22.77079 -65.32670 36103 ft 451 kts 343°
2026-05-03 22:38 22.83147 -65.34408 36103 ft 451 kts 343°
2026-05-03 22:39 22.89210 -65.36146 36099 ft 451 kts 343°
2026-05-03 22:39 22.95282 -65.37888 36101 ft 451 kts 343°
2026-05-03 22:40 23.01351 -65.39631 36095 ft 452 kts 343°
2026-05-03 22:40 23.07443 -65.41382 36100 ft 453 kts 343°
2026-05-03 22:41 23.13535 -65.43135 36100 ft 453 kts 343°
2026-05-03 22:41 23.19627 -65.44889 36099 ft 453 kts 343°
2026-05-03 22:42 23.25723 -65.46646 36103 ft 453 kts 343°
2026-05-03 22:42 23.30787 -65.48107 36112 ft 453 kts 343°
2026-05-03 22:43 23.36878 -65.49866 36104 ft 453 kts 343°
2026-05-03 22:43 23.42970 -65.51626 36105 ft 453 kts 343°
2026-05-03 22:44 23.49070 -65.53386 36104 ft 453 kts 344°
2026-05-03 22:44 23.55308 -65.54566 36112 ft 455 kts 348°
2026-05-03 22:45 23.61563 -65.55660 36120 ft 455 kts 348°
2026-05-03 22:45 23.67817 -65.56748 36108 ft 455 kts 348°
2026-05-03 22:46 23.74032 -65.57827 36106 ft 455 kts 348°
2026-05-03 22:46 23.80286 -65.58915 36109 ft 455 kts 348°
2026-05-03 22:47 23.86546 -65.60004 36108 ft 455 kts 348°
2026-05-03 22:47 23.92804 -65.61093 36115 ft 455 kts 348°
2026-05-03 22:48 23.99076 -65.62187 36115 ft 456 kts 348°
2026-05-03 22:48 24.05348 -65.63281 36114 ft 456 kts 348°
2026-05-03 22:49 24.11620 -65.64377 36112 ft 456 kts 348°
2026-05-03 22:49 24.17890 -65.65473 36112 ft 456 kts 348°
2026-05-03 22:50 24.24166 -65.66571 36123 ft 457 kts 348°
2026-05-03 22:50 24.30446 -65.67671 36118 ft 457 kts 348°
2026-05-03 22:51 24.36728 -65.68773 36123 ft 457 kts 348°
2026-05-03 22:51 24.43007 -65.69875 36122 ft 457 kts 347°
2026-05-03 22:52 24.49292 -65.70979 36114 ft 457 kts 347°
2026-05-03 22:52 24.55538 -65.72078 36126 ft 458 kts 347°
2026-05-03 22:53 24.61833 -65.73186 36124 ft 458 kts 347°
2026-05-03 22:53 24.68128 -65.74296 36128 ft 458 kts 347°
2026-05-03 22:54 24.74421 -65.75406 36123 ft 458 kts 347°
2026-05-03 22:54 24.80721 -65.76519 36132 ft 458 kts 347°
2026-05-03 22:55 24.87029 -65.77633 36120 ft 459 kts 347°
2026-05-03 22:55 24.93335 -65.78749 36117 ft 459 kts 347°
2026-05-03 22:56 24.99638 -65.79866 36119 ft 459 kts 347°
2026-05-03 22:56 25.05944 -65.80985 36123 ft 459 kts 347°
2026-05-03 22:57 25.12252 -65.82105 36128 ft 459 kts 347°
2026-05-03 22:57 25.18522 -65.83219 36126 ft 459 kts 347°
2026-05-03 22:58 25.24835 -65.84342 36126 ft 459 kts 347°
2026-05-03 22:58 25.31150 -65.85467 36129 ft 460 kts 347°
2026-05-03 22:59 25.37464 -65.86593 36133 ft 460 kts 347°
2026-05-03 22:59 25.43778 -65.87720 36128 ft 460 kts 346°
2026-05-03 23:00 25.50099 -65.88850 36127 ft 460 kts 346°
2026-05-03 23:00 25.56423 -65.89980 36130 ft 460 kts 346°
2026-05-03 23:01 25.62739 -65.91111 36130 ft 460 kts 346°
2026-05-03 23:01 25.69058 -65.92244 36128 ft 460 kts 346°
2026-05-03 23:02 25.75371 -65.93377 36131 ft 460 kts 346°
2026-05-03 23:02 25.81706 -65.94515 36127 ft 461 kts 346°
2026-05-03 23:03 25.88034 -65.95653 36130 ft 461 kts 346°
2026-05-03 23:03 25.94362 -65.96792 36130 ft 461 kts 346°
2026-05-03 23:04 26.00690 -65.97933 36133 ft 460 kts 346°
2026-05-03 23:04 26.07014 -65.99073 36130 ft 460 kts 346°
2026-05-03 23:05 26.13338 -66.00216 36127 ft 460 kts 346°
2026-05-03 23:05 26.19623 -66.01352 36127 ft 460 kts 346°
2026-05-03 23:06 26.25947 -66.02497 36128 ft 460 kts 346°
2026-05-03 23:06 26.32269 -66.03642 36129 ft 460 kts 345°
2026-05-03 23:07 26.38585 -66.04788 36128 ft 460 kts 345°
2026-05-03 23:07 26.44905 -66.05936 36127 ft 460 kts 345°
2026-05-03 23:08 26.50783 -66.07005 36124 ft 460 kts 345°
2026-05-03 23:08 26.57100 -66.08154 36144 ft 460 kts 345°
2026-05-03 23:09 26.63418 -66.09305 36132 ft 459 kts 345°
2026-05-03 23:09 26.69732 -66.10457 36129 ft 460 kts 345°
2026-05-03 23:10 26.76043 -66.11610 36125 ft 460 kts 345°
2026-05-03 23:10 26.82312 -66.12756 36124 ft 460 kts 345°
2026-05-03 23:11 26.88621 -66.13911 36125 ft 459 kts 345°
2026-05-03 23:11 26.94930 -66.15066 36125 ft 459 kts 345°
2026-05-03 23:12 27.01237 -66.16224 36123 ft 459 kts 345°
2026-05-03 23:12 27.07544 -66.17382 36121 ft 459 kts 345°
2026-05-03 23:13 27.13852 -66.18541 36138 ft 459 kts 344°
2026-05-03 23:13 27.20156 -66.19702 36122 ft 459 kts 344°
2026-05-03 23:14 27.26461 -66.20864 36120 ft 459 kts 344°
2026-05-03 23:14 27.32768 -66.22027 36121 ft 459 kts 344°
2026-05-03 23:15 27.39072 -66.23192 36119 ft 459 kts 344°
2026-05-03 23:15 27.45382 -66.24359 36124 ft 459 kts 344°
2026-05-03 23:16 27.51692 -66.25527 36122 ft 460 kts 343°
2026-05-03 23:16 27.58016 -66.26699 36115 ft 460 kts 343°
2026-05-03 23:17 27.64345 -66.27873 36117 ft 461 kts 343°
2026-05-03 23:17 27.70623 -66.29040 36126 ft 461 kts 343°
2026-05-03 23:18 27.76945 -66.30216 36113 ft 460 kts 343°
2026-05-03 23:18 27.83271 -66.31394 36112 ft 461 kts 343°
2026-05-03 23:19 27.89594 -66.32573 36111 ft 461 kts 343°
2026-05-03 23:19 27.95919 -66.33753 36107 ft 460 kts 343°
2026-05-03 23:20 28.02241 -66.34935 36110 ft 460 kts 343°
2026-05-03 23:20 28.08561 -66.36117 36104 ft 460 kts 343°
2026-05-03 23:21 28.14880 -66.37301 36108 ft 460 kts 343°
2026-05-03 23:21 28.21159 -66.38479 36102 ft 460 kts 343°
2026-05-03 23:22 28.30635 -66.40259 36110 ft 460 kts 342°
2026-05-03 23:22 28.36955 -66.41447 36104 ft 460 kts 342°
2026-05-03 23:23 28.43278 -66.42638 36100 ft 460 kts 342°
2026-05-03 23:23 28.49600 -66.43830 36097 ft 460 kts 342°
2026-05-03 23:24 28.55927 -66.45025 36099 ft 460 kts 342°
2026-05-03 23:24 28.62248 -66.46220 36097 ft 460 kts 342°
2026-05-03 23:25 28.68570 -66.47416 36097 ft 461 kts 342°
2026-05-03 23:25 28.74889 -66.48614 36097 ft 460 kts 342°
2026-05-03 23:26 28.81215 -66.49814 36102 ft 460 kts 342°
2026-05-03 23:26 28.87534 -66.51014 36095 ft 460 kts 342°
2026-05-03 23:27 28.93856 -66.52217 36095 ft 461 kts 342°
2026-05-03 23:27 29.00183 -66.53422 36095 ft 461 kts 342°
2026-05-03 23:28 29.06507 -66.54627 36094 ft 461 kts 342°
2026-05-03 23:28 29.12804 -66.55830 36113 ft 462 kts 342°
2026-05-03 23:29 29.19149 -66.57042 36099 ft 462 kts 342°
2026-05-03 23:29 29.25504 -66.58259 36091 ft 464 kts 341°
2026-05-03 23:30 29.30797 -66.59273 36092 ft 464 kts 341°
2026-05-03 23:30 29.37165 -66.60494 36091 ft 464 kts 341°
2026-05-03 23:31 29.43542 -66.61719 36101 ft 466 kts 341°
2026-05-03 23:31 29.49938 -66.62948 36094 ft 466 kts 341°
2026-05-03 23:32 29.56334 -66.64180 36090 ft 466 kts 341°
2026-05-03 23:32 29.62732 -66.65413 36092 ft 466 kts 341°
2026-05-03 23:33 29.69135 -66.66648 36095 ft 467 kts 341°
2026-05-03 23:33 29.75545 -66.67887 36093 ft 467 kts 341°
2026-05-03 23:34 29.81955 -66.69127 36095 ft 467 kts 341°
2026-05-03 23:34 29.88369 -66.70369 36094 ft 467 kts 341°
2026-05-03 23:35 29.94777 -66.71627 36117 ft 467 kts 340°
2026-05-03 23:35 30.01181 -66.72887 36092 ft 467 kts 340°
2026-05-03 23:36 30.07588 -66.74147 36095 ft 467 kts 340°
2026-05-03 23:36 30.14003 -66.75411 36094 ft 467 kts 340°
2026-05-03 23:37 30.20408 -66.76674 36116 ft 467 kts 340°
2026-05-03 23:37 30.26813 -66.77939 36094 ft 466 kts 340°
2026-05-03 23:38 30.33211 -66.79204 36097 ft 467 kts 340°
2026-05-03 23:38 30.39572 -66.80464 36097 ft 467 kts 340°
2026-05-03 23:39 30.45971 -66.81733 36097 ft 467 kts 340°
2026-05-03 23:39 30.52378 -66.83005 36100 ft 467 kts 340°
2026-05-03 23:40 30.58792 -66.84280 36099 ft 468 kts 340°
2026-05-03 23:40 30.65203 -66.85557 36100 ft 467 kts 340°
2026-05-03 23:41 30.71612 -66.86834 36100 ft 467 kts 340°
2026-05-03 23:41 30.78025 -66.88114 36107 ft 467 kts 339°
2026-05-03 23:42 30.84436 -66.89396 36121 ft 468 kts 339°
2026-05-03 23:42 30.90857 -66.90681 36102 ft 468 kts 339°
2026-05-03 23:43 30.97274 -66.91967 36097 ft 468 kts 339°
2026-05-03 23:43 31.03661 -66.93249 36113 ft 469 kts 339°
2026-05-03 23:44 31.10096 -66.94542 36101 ft 469 kts 339°
2026-05-03 23:44 31.16526 -66.95837 36097 ft 469 kts 339°
2026-05-03 23:45 31.22958 -66.97133 36096 ft 469 kts 339°
2026-05-03 23:45 31.29390 -66.98432 36095 ft 469 kts 339°
2026-05-03 23:46 31.35827 -66.99733 36096 ft 469 kts 339°
2026-05-03 23:46 31.42264 -67.01036 36099 ft 469 kts 339°
2026-05-03 23:47 31.48694 -67.02339 36100 ft 469 kts 339°
2026-05-03 23:47 31.55126 -67.03645 36132 ft 469 kts 339°
2026-05-03 23:48 31.61532 -67.04947 36101 ft 471 kts 339°
2026-05-03 23:48 31.68033 -67.06270 36098 ft 471 kts 339°
2026-05-03 23:49 31.74454 -67.07579 36099 ft 471 kts 339°
2026-05-03 23:49 31.80910 -67.08897 36133 ft 471 kts 338°
2026-05-03 23:50 31.86289 -67.09996 36107 ft 472 kts 338°
2026-05-03 23:50 31.93860 -67.11546 36101 ft 473 kts 338°
2026-05-03 23:51 32.00343 -67.12875 36100 ft 473 kts 338°
2026-05-03 23:51 32.06823 -67.14206 36100 ft 473 kts 338°
2026-05-03 23:52 32.13308 -67.15539 36102 ft 474 kts 338°
2026-05-03 23:52 32.19815 -67.16879 36100 ft 474 kts 338°
2026-05-03 23:53 32.26313 -67.18218 36100 ft 474 kts 338°
2026-05-03 23:53 32.32777 -67.19553 36100 ft 474 kts 338°
2026-05-03 23:54 32.39267 -67.20895 36104 ft 473 kts 336°
2026-05-03 23:54 32.45750 -67.22237 36122 ft 473 kts 335°
2026-05-03 23:55 32.52220 -67.23580 36100 ft 472 kts 335°
2026-05-03 23:55 32.58697 -67.24925 36098 ft 472 kts 335°
2026-05-03 23:56 32.65169 -67.26271 36099 ft 471 kts 335°
2026-05-03 23:56 32.71620 -67.27615 36101 ft 471 kts 335°
2026-05-03 23:57 32.78080 -67.28963 36107 ft 471 kts 335°
2026-05-03 23:57 32.84539 -67.30313 36108 ft 471 kts 335°
2026-05-03 23:58 32.90999 -67.31664 36108 ft 471 kts 334°
2026-05-03 23:58 32.97458 -67.33018 36107 ft 472 kts 334°
2026-05-03 23:59 33.03924 -67.34374 36107 ft 472 kts 334°
2026-05-03 23:59 33.10389 -67.35734 36108 ft 472 kts 334°
2026-05-04 00:00 33.16813 -67.37086 36109 ft 471 kts 334°
2026-05-04 00:00 33.23270 -67.38447 36105 ft 471 kts 334°
2026-05-04 00:01 33.29730 -67.39811 36100 ft 471 kts 334°
2026-05-04 00:01 33.36192 -67.41177 36099 ft 471 kts 334°
2026-05-04 00:02 33.42636 -67.42542 36103 ft 469 kts 334°
2026-05-04 00:02 33.49053 -67.43903 36104 ft 469 kts 334°
2026-05-04 00:03 33.55479 -67.45268 36102 ft 469 kts 334°
2026-05-04 00:03 33.61898 -67.46634 36102 ft 469 kts 334°
2026-05-04 00:04 33.68261 -67.47989 36103 ft 465 kts 334°
2026-05-04 00:04 33.74632 -67.49349 36104 ft 465 kts 334°
2026-05-04 00:05 33.81014 -67.50712 36105 ft 465 kts 334°
2026-05-04 00:05 33.87389 -67.52077 36103 ft 465 kts 334°
2026-05-04 00:06 33.93763 -67.53443 36102 ft 465 kts 334°
2026-05-04 00:06 34.00141 -67.54812 36133 ft 465 kts 333°
2026-05-04 00:07 34.06495 -67.56178 36098 ft 464 kts 333°
2026-05-04 00:07 34.12686 -67.57798 36098 ft 436 kts 320°
2026-05-04 00:08 34.15232 -67.59492 36119 ft 408 kts 310°
2026-05-04 00:08 34.17595 -67.61386 36099 ft 407 kts 309°
2026-05-04 00:08 34.22187 -67.65331 36102 ft 404 kts 308°
2026-05-04 00:09 34.26703 -67.69358 36099 ft 403 kts 307°
2026-05-04 00:09 34.31195 -67.73411 36099 ft 402 kts 307°
2026-05-04 00:10 34.35680 -67.77470 36099 ft 402 kts 307°
2026-05-04 00:10 34.40162 -67.81532 36099 ft 402 kts 307°
2026-05-04 00:11 34.44639 -67.85597 36142 ft 401 kts 307°
2026-05-04 00:11 34.49047 -67.89603 36096 ft 398 kts 307°
2026-05-04 00:12 34.53486 -67.93643 36100 ft 399 kts 307°
2026-05-04 00:12 34.57926 -67.97690 36099 ft 399 kts 307°
2026-05-04 00:13 34.62365 -68.01741 36097 ft 399 kts 307°
2026-05-04 00:13 34.66803 -68.05797 36097 ft 399 kts 307°
2026-05-04 00:14 34.71238 -68.09856 36097 ft 399 kts 307°
2026-05-04 00:14 34.75668 -68.13915 36093 ft 397 kts 307°
2026-05-04 00:15 34.80080 -68.17965 36097 ft 398 kts 307°
2026-05-04 00:15 34.84497 -68.22023 36105 ft 397 kts 307°
2026-05-04 00:16 34.88901 -68.26076 36097 ft 397 kts 307°
2026-05-04 00:16 34.93309 -68.30138 36093 ft 397 kts 307°
2026-05-04 00:17 34.97711 -68.34200 36096 ft 397 kts 307°
2026-05-04 00:17 35.02089 -68.38245 36139 ft 396 kts 306°
2026-05-04 00:18 35.06470 -68.42299 36093 ft 395 kts 306°
2026-05-04 00:18 35.10852 -68.46360 36097 ft 395 kts 306°
2026-05-04 00:19 35.15234 -68.50426 36089 ft 395 kts 306°
2026-05-04 00:19 35.18878 -68.53811 36120 ft 395 kts 306°
2026-05-04 00:20 35.23252 -68.57880 36093 ft 394 kts 306°
2026-05-04 00:20 35.27620 -68.61948 36092 ft 395 kts 306°
2026-05-04 00:21 35.31984 -68.66020 36117 ft 393 kts 306°
2026-05-04 00:21 35.36328 -68.70078 36094 ft 393 kts 306°
2026-05-04 00:22 35.40680 -68.74148 36091 ft 393 kts 306°
2026-05-04 00:22 35.45003 -68.78197 36092 ft 393 kts 306°
2026-05-04 00:23 35.49349 -68.82274 36092 ft 393 kts 306°
2026-05-04 00:23 35.53692 -68.86354 36119 ft 393 kts 306°
2026-05-04 00:24 35.58041 -68.90445 36159 ft 393 kts 306°
2026-05-04 00:24 35.62378 -68.94529 36090 ft 392 kts 306°
2026-05-04 00:25 35.66713 -68.98619 36098 ft 393 kts 306°
2026-05-04 00:25 35.71049 -69.02715 36091 ft 393 kts 306°
2026-05-04 00:26 35.75395 -69.06826 36092 ft 393 kts 306°
2026-05-04 00:26 35.79724 -69.10927 36093 ft 393 kts 306°
2026-05-04 00:27 35.84053 -69.15034 36094 ft 393 kts 306°
2026-05-04 00:27 35.88359 -69.19124 36109 ft 393 kts 306°
2026-05-04 00:28 35.92696 -69.23250 36103 ft 394 kts 306°
2026-05-04 00:28 35.97037 -69.27386 36095 ft 394 kts 306°
2026-05-04 00:29 36.01378 -69.31526 36092 ft 394 kts 306°
2026-05-04 00:29 36.05718 -69.35670 36092 ft 394 kts 306°
2026-05-04 00:30 36.10056 -69.39819 36094 ft 394 kts 306°
2026-05-04 00:30 36.14395 -69.43974 36171 ft 394 kts 306°
2026-05-04 00:31 36.18736 -69.48146 36092 ft 396 kts 306°
2026-05-04 00:31 36.23092 -69.52333 36096 ft 397 kts 306°
2026-05-04 00:32 36.27455 -69.56532 36101 ft 397 kts 307°
2026-05-04 00:32 36.31819 -69.60739 36092 ft 397 kts 307°
2026-05-04 00:33 36.38367 -69.67061 36094 ft 397 kts 307°
2026-05-04 00:34 36.42728 -69.71280 36136 ft 398 kts 307°
2026-05-04 00:34 36.47070 -69.75487 36098 ft 398 kts 307°
2026-05-04 00:35 36.51440 -69.79726 36095 ft 398 kts 307°
2026-05-04 00:35 36.55809 -69.83971 36094 ft 398 kts 307°
2026-05-04 00:36 36.60176 -69.88221 36119 ft 399 kts 307°
2026-05-04 00:36 36.64550 -69.92484 36098 ft 399 kts 307°
2026-05-04 00:37 36.68924 -69.96752 36097 ft 399 kts 307°
2026-05-04 00:37 36.73292 -70.01022 36103 ft 399 kts 307°
2026-05-04 00:38 36.77663 -70.05300 36092 ft 399 kts 307°
2026-05-04 00:38 36.82029 -70.09580 36097 ft 399 kts 307°
2026-05-04 00:39 36.86397 -70.13868 36097 ft 399 kts 307°
2026-05-04 00:39 36.90762 -70.18161 36097 ft 399 kts 307°
2026-05-04 00:40 36.95099 -70.22432 36113 ft 400 kts 308°
2026-05-04 00:40 36.99469 -70.26741 36118 ft 401 kts 308°
2026-05-04 00:41 37.03847 -70.31065 36099 ft 401 kts 308°
2026-05-04 00:41 37.08228 -70.35399 36097 ft 401 kts 308°
2026-05-04 00:42 37.12608 -70.39739 36097 ft 401 kts 308°
2026-05-04 00:42 37.16986 -70.44083 36096 ft 401 kts 308°
2026-05-04 00:43 37.21361 -70.48430 36101 ft 401 kts 308°
2026-05-04 00:43 37.25732 -70.52780 36162 ft 401 kts 308°
2026-05-04 00:44 37.30097 -70.57131 36106 ft 403 kts 309°
2026-05-04 00:44 37.34492 -70.61518 36099 ft 404 kts 309°
2026-05-04 00:45 37.38890 -70.65915 36095 ft 404 kts 309°
2026-05-04 00:45 37.43288 -70.70319 36092 ft 403 kts 309°
2026-05-04 00:46 37.47674 -70.74718 36097 ft 403 kts 309°
2026-05-04 00:46 37.52068 -70.79132 36097 ft 403 kts 309°
2026-05-04 00:47 37.56458 -70.83548 36097 ft 404 kts 309°
2026-05-04 00:47 37.60852 -70.87973 36093 ft 404 kts 309°
2026-05-04 00:48 37.65245 -70.92405 36092 ft 404 kts 309°
2026-05-04 00:48 37.69612 -70.96816 36089 ft 404 kts 309°
2026-05-04 00:48 37.71577 -70.99236 36074 ft 385 kts 297°
2026-05-04 00:49 37.73169 -71.01888 36080 ft 386 kts 298°
2026-05-04 00:49 37.76431 -71.07266 36094 ft 386 kts 297°
2026-05-04 00:50 37.79658 -71.12680 36087 ft 385 kts 297°
2026-05-04 00:50 37.82880 -71.18106 36114 ft 387 kts 297°
2026-05-04 00:51 37.86111 -71.23561 36092 ft 387 kts 297°
2026-05-04 00:51 37.89342 -71.29025 36088 ft 388 kts 297°
2026-05-04 00:52 37.92569 -71.34492 36083 ft 388 kts 297°
2026-05-04 00:52 37.95856 -71.39921 36070 ft 395 kts 304°
2026-05-04 00:52 37.98018 -71.42111 36097 ft 412 kts 316°
2026-05-04 00:53 38.00490 -71.44029 36073 ft 416 kts 316°
2026-05-04 00:53 38.05442 -71.47859 36085 ft 418 kts 317°
2026-05-04 00:54 38.10444 -71.51612 36120 ft 418 kts 318°
2026-05-04 00:54 38.15477 -71.55361 36086 ft 420 kts 318°
2026-05-04 00:55 38.20519 -71.59117 36077 ft 420 kts 318°
2026-05-04 00:55 38.25555 -71.62875 36076 ft 420 kts 318°
2026-05-04 00:56 38.30594 -71.66642 36068 ft 420 kts 318°
2026-05-04 00:56 38.35625 -71.70409 36116 ft 420 kts 319°
2026-05-04 00:57 38.40670 -71.74192 36068 ft 421 kts 319°
2026-05-04 00:57 38.45720 -71.77986 36068 ft 421 kts 319°
2026-05-04 00:58 38.50734 -71.81758 36061 ft 421 kts 319°
2026-05-04 00:58 38.55781 -71.85562 36063 ft 421 kts 319°
2026-05-04 00:59 38.60827 -71.89371 36099 ft 421 kts 319°
2026-05-04 00:59 38.65894 -71.93202 36069 ft 423 kts 320°
2026-05-04 01:00 38.70956 -71.97037 36059 ft 423 kts 320°
2026-05-04 01:00 38.76015 -72.00874 36056 ft 423 kts 320°
2026-05-04 01:01 38.81081 -72.04723 36049 ft 423 kts 320°
2026-05-04 01:01 38.86143 -72.08577 36079 ft 423 kts 320°
2026-05-04 01:02 38.91217 -72.12446 36050 ft 425 kts 320°
2026-05-04 01:02 38.96304 -72.16331 36045 ft 425 kts 320°
2026-05-04 01:03 39.01385 -72.20218 36038 ft 425 kts 320°
2026-05-04 01:03 39.06467 -72.24113 36040 ft 425 kts 320°
2026-05-04 01:04 39.11543 -72.28009 36084 ft 425 kts 321°
2026-05-04 01:04 39.16634 -72.31924 36041 ft 426 kts 321°
2026-05-04 01:05 39.21695 -72.35822 36034 ft 427 kts 321°
2026-05-04 01:05 39.26788 -72.39751 36032 ft 426 kts 321°
2026-05-04 01:06 39.31878 -72.43686 36023 ft 427 kts 321°
2026-05-04 01:06 39.36970 -72.47628 36017 ft 426 kts 321°
2026-05-04 01:07 39.42061 -72.51575 36020 ft 427 kts 321°
2026-05-04 01:07 39.44483 -72.53713 36006 ft 416 kts 311°
2026-05-04 01:07 39.46380 -72.56452 36007 ft 401 kts 296°
2026-05-04 01:08 39.48503 -72.61727 36001 ft 401 kts 295°
2026-05-04 01:08 39.51358 -72.67935 36024 ft 402 kts 296°
2026-05-04 01:09 39.54255 -72.74118 36020 ft 402 kts 296°
2026-05-04 01:09 39.57161 -72.80303 36024 ft 402 kts 296°
2026-05-04 01:10 39.60065 -72.86491 36024 ft 402 kts 296°
2026-05-04 01:10 39.62964 -72.92680 36028 ft 401 kts 296°
2026-05-04 01:11 39.65864 -72.98884 36036 ft 403 kts 296°
2026-05-04 01:11 39.68746 -73.05062 36023 ft 403 kts 296°
2026-05-04 01:11 39.70194 -73.08170 35872 ft 401 kts 296°
2026-05-04 01:12 39.71639 -73.11270 35188 ft 401 kts 296°
2026-05-04 01:12 39.73068 -73.14344 34761 ft 394 kts 296°
2026-05-04 01:12 39.74474 -73.17374 34354 ft 388 kts 296°
2026-05-04 01:12 39.75868 -73.20377 33694 ft 388 kts 297°
2026-05-04 01:13 39.77267 -73.23390 32812 ft 391 kts 297°
2026-05-04 01:13 39.78674 -73.26424 31991 ft 393 kts 297°
2026-05-04 01:13 39.80083 -73.29466 31234 ft 393 kts 297°
2026-05-04 01:13 39.81493 -73.32511 30493 ft 393 kts 297°
2026-05-04 01:14 39.82906 -73.35566 29607 ft 394 kts 297°
2026-05-04 01:14 39.84318 -73.38624 28711 ft 394 kts 297°
2026-05-04 01:14 39.85725 -73.41677 27896 ft 393 kts 298°
2026-05-04 01:14 39.87123 -73.44713 27067 ft 390 kts 298°
2026-05-04 01:15 39.88539 -73.47788 26326 ft 401 kts 298°
2026-05-04 01:15 39.89985 -73.50928 25660 ft 406 kts 298°
2026-05-04 01:15 39.91438 -73.54092 25019 ft 408 kts 298°
2026-05-04 01:15 39.92892 -73.57260 24373 ft 407 kts 298°
2026-05-04 01:16 39.94339 -73.60419 23732 ft 404 kts 298°
2026-05-04 01:16 39.95770 -73.63548 23006 ft 401 kts 298°
2026-05-04 01:16 39.97196 -73.66669 22349 ft 400 kts 298°
2026-05-04 01:16 39.98621 -73.69790 21694 ft 399 kts 298°
2026-05-04 01:17 40.00035 -73.72890 21069 ft 397 kts 299°
2026-05-04 01:17 40.01440 -73.75975 20447 ft 394 kts 299°
2026-05-04 01:17 40.02817 -73.78999 19826 ft 392 kts 299°
2026-05-04 01:17 40.04205 -73.82051 19218 ft 389 kts 299°
2026-05-04 01:18 40.05579 -73.85077 18612 ft 387 kts 299°
2026-05-04 01:18 40.06946 -73.88088 17969 ft 384 kts 299°
2026-05-04 01:18 40.08306 -73.91087 17317 ft 382 kts 300°
2026-05-04 01:18 40.09654 -73.94064 16723 ft 380 kts 300°
2026-05-04 01:19 40.10997 -73.97031 16157 ft 378 kts 300°
2026-05-04 01:19 40.12331 -73.99982 15578 ft 376 kts 300°
2026-05-04 01:19 40.13663 -74.02931 15014 ft 376 kts 301°
2026-05-04 01:19 40.14988 -74.05867 14432 ft 375 kts 301°
2026-05-04 01:20 40.16309 -74.08797 13879 ft 373 kts 301°
2026-05-04 01:20 40.17623 -74.11715 13258 ft 371 kts 301°
2026-05-04 01:20 40.18923 -74.14605 12685 ft 367 kts 302°
2026-05-04 01:20 40.20209 -74.17465 12167 ft 362 kts 302°
2026-05-04 01:21 40.21465 -74.20264 11940 ft 350 kts 302°
2026-05-04 01:21 40.22676 -74.22966 11766 ft 338 kts 302°
2026-05-04 01:21 40.23846 -74.25576 11579 ft 327 kts 302°
2026-05-04 01:21 40.24960 -74.28065 11408 ft 316 kts 302°
2026-05-04 01:22 40.26052 -74.30507 11247 ft 305 kts 302°
2026-05-04 01:22 40.27109 -74.32869 11091 ft 296 kts 302°
2026-05-04 01:22 40.28128 -74.35152 10957 ft 286 kts 302°
2026-05-04 01:22 40.29116 -74.37362 10804 ft 276 kts 302°
2026-05-04 01:23 40.30069 -74.39497 10669 ft 267 kts 302°
2026-05-04 01:23 40.30989 -74.41560 10539 ft 258 kts 302°
2026-05-04 01:23 40.31876 -74.43551 10424 ft 249 kts 302°
2026-05-04 01:23 40.32732 -74.45470 10297 ft 239 kts 302°
2026-05-04 01:24 40.33557 -74.47324 10181 ft 231 kts 302°
2026-05-04 01:24 40.34373 -74.49157 10072 ft 238 kts 302°
2026-05-04 01:24 40.35218 -74.51055 9817 ft 244 kts 302°
2026-05-04 01:24 40.36076 -74.52984 9537 ft 245 kts 302°
2026-05-04 01:25 40.36937 -74.54923 9260 ft 246 kts 302°
2026-05-04 01:25 40.37796 -74.56857 8996 ft 245 kts 302°
2026-05-04 01:25 40.38653 -74.58790 8727 ft 245 kts 301°
2026-05-04 01:25 40.39507 -74.60713 8477 ft 244 kts 301°
2026-05-04 01:26 40.40358 -74.62632 8212 ft 243 kts 301°
2026-05-04 01:26 40.41242 -74.64505 8012 ft 240 kts 310°
2026-05-04 01:26 40.42563 -74.65800 7882 ft 241 kts 335°
2026-05-04 01:26 40.44224 -74.66197 7793 ft 249 kts 357°
2026-05-04 01:27 40.45955 -74.65864 7751 ft 253 kts
2026-05-04 01:27 40.47687 -74.65444 7694 ft 254 kts
2026-05-04 01:27 40.49421 -74.65009 7638 ft 254 kts
2026-05-04 01:27 40.51152 -74.64562 7585 ft 254 kts
2026-05-04 01:28 40.52884 -74.64109 7524 ft 254 kts
2026-05-04 01:28 40.54615 -74.63651 7483 ft 254 kts
2026-05-04 01:28 40.56345 -74.63190 7428 ft 254 kts
2026-05-04 01:28 40.58054 -74.62735 7368 ft 254 kts
2026-05-04 01:29 40.59782 -74.62271 7313 ft 254 kts
2026-05-04 01:29 40.61512 -74.61808 7261 ft 253 kts
2026-05-04 01:29 40.63248 -74.61343 7132 ft 258 kts
2026-05-04 01:29 40.65025 -74.60866 6806 ft 263 kts
2026-05-04 01:30 40.66819 -74.60385 6539 ft 264 kts
2026-05-04 01:30 40.68616 -74.59902 6344 ft 263 kts
2026-05-04 01:30 40.70405 -74.59421 6166 ft 263 kts
2026-05-04 01:30 40.72195 -74.58939 5972 ft 262 kts
2026-05-04 01:31 40.73982 -74.58459 5804 ft 262 kts
2026-05-04 01:31 40.75765 -74.57979 5618 ft 261 kts
2026-05-04 01:31 40.77547 -74.57500 5422 ft 261 kts
2026-05-04 01:31 40.79326 -74.57020 5244 ft 261 kts
2026-05-04 01:32 40.81102 -74.56543 5009 ft 260 kts
2026-05-04 01:32 40.82879 -74.56062 4790 ft 261 kts
2026-05-04 01:32 40.84651 -74.55544 4645 ft 260 kts
2026-05-04 01:32 40.86405 -74.54925 4674 ft 264 kts 13°
2026-05-04 01:33 40.88135 -74.54083 4656 ft 265 kts 14°
2026-05-04 01:33 40.89855 -74.53210 4670 ft 265 kts 15°
2026-05-04 01:33 40.91571 -74.52323 4665 ft 266 kts 19°
2026-05-04 01:33 40.93151 -74.50990 4604 ft 271 kts 32°
2026-05-04 01:34 40.94600 -74.49419 4430 ft 267 kts 33°
2026-05-04 01:34 40.95999 -74.47863 4292 ft 265 kts 34°
2026-05-04 01:34 40.97320 -74.46145 4114 ft 267 kts 42°
2026-05-04 01:34 40.98555 -74.44328 3897 ft 264 kts 43°
2026-05-04 01:35 40.99714 -74.42454 3698 ft 263 kts 58°
2026-05-04 01:35 41.00090 -74.40127 3548 ft 261 kts 97°
2026-05-04 01:35 40.99545 -74.37865 3476 ft 261 kts 113°
2026-05-04 01:35 40.98900 -74.35552 3481 ft 273 kts 109°
2026-05-04 01:36 40.98289 -74.33145 3457 ft 278 kts 108°
2026-05-04 01:36 40.97703 -74.30702 3437 ft 279 kts 108°
2026-05-04 01:36 40.97128 -74.28251 3392 ft 278 kts 107°
2026-05-04 01:36 40.96569 -74.25830 3269 ft 272 kts 107°
2026-05-04 01:37 40.96029 -74.23480 3184 ft 262 kts 107°
2026-05-04 01:37 40.95511 -74.21214 3163 ft 257 kts 107°
2026-05-04 01:37 40.94999 -74.18955 3044 ft 256 kts 107°
2026-05-04 01:37 40.94486 -74.16742 2977 ft 248 kts 111°
2026-05-04 01:38 40.93530 -74.14944 2938 ft 236 kts 146°
2026-05-04 01:38 40.92161 -74.13762 3012 ft 235 kts 154°
2026-05-04 01:38 40.90774 -74.12677 3010 ft 228 kts 155°
2026-05-04 01:38 40.89416 -74.11625 3005 ft 225 kts 155°
2026-05-04 01:39 40.88090 -74.10600 3007 ft 216 kts 155°
2026-05-04 01:39 40.86797 -74.09622 2995 ft 213 kts 155°
2026-05-04 01:39 40.85523 -74.08668 3014 ft 214 kts 155°
2026-05-04 01:39 40.84212 -74.07845 2886 ft 203 kts 175°
2026-05-04 01:40 40.82895 -74.08020 2594 ft 185 kts 208°
2026-05-04 01:40 40.81775 -74.08655 2569 ft 169 kts 211°
2026-05-04 01:40 40.80695 -74.09293 2484 ft 169 kts 211°
2026-05-04 01:40 40.79644 -74.09930 2271 ft 164 kts 212°
2026-05-04 01:41 40.78612 -74.10564 2015 ft 163 kts 211°
2026-05-04 01:41 40.77616 -74.11159 1790 ft 158 kts 211°
2026-05-04 01:41 40.76629 -74.11778 1516 ft 155 kts 211°
2026-05-04 01:41 40.75688 -74.12377 1310 ft 147 kts 211°
2026-05-04 01:42 40.74779 -74.12957 1110 ft 144 kts 210°
2026-05-04 01:42 40.73874 -74.13535 1058 ft 145 kts 210°
2026-05-04 01:42 40.72954 -74.14104 840 ft 146 kts 207°
2026-05-04 01:42 40.72033 -74.14681 598 ft 146 kts 207°
2026-05-04 01:43 40.71131 -74.15260 374 ft 143 kts 207°
2026-05-04 01:43 40.70238 -74.15833 173 ft 143 kts 208°
2026-05-04 01:43 40.69362 -74.16402 28 ft 129 kts 207°
2026-05-04 01:43 40.68770 -74.16783 23 ft 63 kts 206°
2026-05-04 01:44 40.68561 -74.16950 26 ft 19 kts 227°
2026-05-04 01:44 40.68489 -74.17085 25 ft 16 kts 236°
2026-05-04 01:44 40.68440 -74.17203 25 ft 11 kts 263°
2026-05-04 01:44 40.68456 -74.17294 27 ft 7 kts 290°
2026-05-04 01:45 40.68490 -74.17375 26 ft 15 kts 299°
2026-05-04 01:45 40.68555 -74.17455 28 ft 13 kts
2026-05-04 01:45 40.68813 -74.17296 27 ft 25 kts 26°
2026-05-04 01:46 40.68975 -74.17193 28 ft 26 kts 25°
2026-05-04 01:46 40.69117 -74.17103 26 ft 22 kts 26°
2026-05-04 01:46 40.69255 -74.17015 27 ft 22 kts 24°
2026-05-04 01:46 40.69398 -74.16971 25 ft 20 kts
2026-05-04 01:47 40.69545 -74.16988 24 ft 22 kts 348°
2026-05-04 01:47 40.69677 -74.17045 28 ft 19 kts 335°
2026-05-04 01:47 40.69797 -74.17145 24 ft 21 kts 320°
2026-05-04 01:47 40.69899 -74.17282 26 ft 20 kts 309°
2026-05-04 01:48 40.69961 -74.17447 27 ft 21 kts 281°
2026-05-04 01:48 40.69976 -74.17637 28 ft 17 kts 275°
2026-05-04 01:48 40.69986 -74.17793 25 ft 13 kts 275°
2026-05-04 01:48 40.69994 -74.17917 25 ft 15 kts 275°
2026-05-04 01:49 40.70004 -74.18055 26 ft 16 kts 275°
2026-05-04 01:49 40.69980 -74.18151 28 ft 11 kts 206°
2026-05-04 01:49 40.69895 -74.18168 25 ft 14 kts 183°
2026-05-04 01:49 40.69809 -74.18130 28 ft 13 kts 154°
2026-05-04 01:50 40.69745 -74.18075 26 ft 10 kts 128°
2026-05-04 01:50 40.69730 -74.18015 25 ft 6 kts 72°
2026-05-04 01:50 40.69740 -74.17986 25 ft 1 kts 64°
2026-05-04 01:50 40.69743 -74.17978 25 ft 0 kts 64°